Location: Unspecified
(0.0000°N, 0.0000°E)
Time: 20:45:34
(UTC+00:00)

THORAD AGENA D DEB - Visible Passes

Search period start: 12 January 2025 00:00
Search period end: 22 January 2025 00:00
Orbit: 1007 x 1266 km, 100.6° (Epoch: 08 January)

Date Brightness Start Highest point End Pass type
(mag) Time Alt. Az. Time Alt. Az. Time Alt. Az.
12 Jan ? 19:40:06 10° SSW 19:45:59 32° WSW 19:51:37 10° NW visible
13 Jan ? 05:37:34 10° ENE 05:42:03 18° ESE 05:46:40 10° SSE visible
13 Jan ? 19:05:19 10° S 19:12:05 67° WSW 19:18:27 10° NNW visible
14 Jan ? 18:31:27 10° SSE 18:38:06 58° ENE 18:44:21 10° N visible
14 Jan ? 20:21:23 10° SW 20:23:59 12° WSW 20:26:31 10° W visible
15 Jan ? 19:44:30 10° SSW 19:50:09 29° WSW 19:55:33 10° NW visible
16 Jan ? 05:41:22 10° ENE 05:46:15 20° ESE 05:51:16 10° SSE visible
16 Jan ? 19:09:35 10° S 19:16:14 62° WSW 19:22:30 10° NNW visible
17 Jan ? 18:35:38 10° SSE 18:42:14 63° ENE 18:48:29 10° N visible
17 Jan ? 20:26:32 10° WSW 20:28:07 11° WSW 20:29:41 10° W visible
18 Jan ? 19:48:55 10° SSW 19:54:16 26° WSW 19:59:26 10° NW visible
19 Jan ? 05:45:13 10° ENE 05:50:26 22° ESE 05:55:48 10° SSE visible
19 Jan ? 19:13:51 10° S 19:20:21 57° WSW 19:26:32 10° NNW visible
20 Jan ? 18:39:47 10° SSE 18:46:22 68° ENE 18:52:36 10° N visible
21 Jan ? 19:53:19 10° SSW 19:58:23 24° WSW 20:03:18 10° NW visible
